CAPE
121 399 418 863 1032 1023 1121 1070 892 694 634 482 551 368 188 166 101 75 129 143 588 690 628 427 302 244 85 5 0 0 0 0 0 0 133 705 445 431 260 142 383 390 353
50 478 546 1209 1105 1011 1142 1026 898 770 683 648 513 513 542 583 601 524 218 264 749 589 432 198 84 0 3 3 0 0 0 0 0 0 0 170 221 61 0 0 0 1 105
19 334 718 1315 1259 1104 1131 982 836 780 790 810 894 603 674 688 456 479 543 627 620 411 213 82 0 0 0 0 0 0 0 0 0 0 0 4 259 359 46 0 0 0 0
6 371 777 1244 1252 1208 1023 880 847 687 746 816 894 560 567 525 207 134 293 419 406 135 22 0 0 0 0 0 0 0 0 0 0 0 0 0 0 23 349 3 0 0 0
0 415 857 1090 1194 1094 1021 936 851 640 540 818 943 768 629 398 74 13 9 49 124 6 0 0 0 0 0 0 0 0 0 0 0 0 0 0 0 96 213 185 0 0 0
0 255 864 1012 1106 1110 1148 1019 940 694 551 798 1019 867 444 130 28 0 2 2 7 1 0 0 0 0 0 0 0 0 0 0 0 0 0 0 11 74 19 67 22 0 0
4 74 558 795 939 987 990 1122 974 815 609 980 985 510 183 50 2 1 3 2 2 1 0 0 0 0 0 0 0 0 0 0 0 0 0 0 0 11 11 6 6 2 0
88 162 220 537 743 845 880 951 1010 893 715 945 636 311 52 3 2 1 2 2 1 0 0 0 0 0 0 0 0 0 0 0 0 0 0 0 0 2 2 1 0 0 0
78 176 273 468 594 685 672 724 780 764 726 778 281 29 15 0 2 2 0 1 0 0 0 0 0 0 0 0 0 0 0 0 0 0 0 0 0 0 0 0 0 0 0
43 204 270 333 390 476 543 656 796 675 486 470 129 0 0 0 1 0 0 0 0 0 0 0 0 0 0 0 0 0 0 0 0 0 0 0 0 0 0 0 0 0 0
0 120 196 224 288 282 261 243 425 426 426 272 51 0 0 0 0 0 0 0 0 0 0 0 0 0 0 0 0 0 0 0 0 0 0 0 0 0 0 0 0 0 0
0 0 62 129 155 178 153 118 57 78 169 217 189 12 0 0 0 0 0 0 0 0 0 0 0 0 0 0 0 0 0 0 0 0 0 0 0 0 0 0 0 0 0
0 0 0 4 31 54 68 24 68 42 38 62 54 64 3 0 0 0 0 0 0 0 0 0 0 0 0 0 0 0 0 0 0 0 0 0 0 0 0 0 0 0 0
0 0 0 0 0 0 0 0 0 0 16 3 5 11 7 0 0 0 0 0 0 0 0 0 0 0 0 0 0 0 0 0 0 0 0 0 0 0 0 0 0 0 1
0 0 0 0 0 0 2 9 0 0 0 3 19 6 0 0 0 0 0 0 0 0 0 0 0 0 0 0 0 0 0 0 0 0 0 0 0 0 0 0 0 5 8
0 0 0 0 0 0 0 0 0 0 0 0 0 0 0 0 0 0 0 0 0 0 0 0 0 0 0 0 0 0 0 0 0 0 0 0 0 0 0 0 0 1 1
0 0 0 0 0 0 0 0 0 0 0 0 0 0 0 0 0 0 0 0 0 0 0 0 0 0 0 0 0 0 0 0 0 0 0 0 0 0 0 0 0 8 4
0 0 0 0 0 0 0 0 0 0 0 0 0 0 0 0 0 0 0 0 0 0 0 0 0 0 0 0 0 0 0 0 0 0 0 0 0 0 0 0 0 0 0
0 0 0 0 0 0 0 0 0 0 0 0 0 0 0 0 0 0 0 0 0 0 0 0 0 0 0 0 0 0 0 0 0 0 0 0 0 0 0 0 0 0 0
0 0 0 0 0 0 0 0 0 0 0 0 0 0 0 0 0 0 0 0 0 0 0 0 0 0 0 0 0 0 0 0 0 0 0 0 0 0 0 0 0 0 0
0 0 0 0 0 0 0 0 0 0 0 0 0 0 0 0 0 0 0 0 0 0 0 0 0 0 0 0 0 0 0 0 0 0 0 0 0 0 0 0 0 0 0
0 0 0 0 0 0 0 0 0 0 0 0 0 0 0 0 0 0 0 0 0 0 0 0 0 0 0 0 0 0 0 0 0 0 0 0 0 0 0 0 0 0 0
0 0 0 0 0 0 0 0 0 0 0 0 0 0 0 0 0 0 0 0 0 0 0 0 0 0 0 0 0 0 0 0 0 0 0 0 0 0 0 0 0 0 0
0 0 0 0 0 0 0 0 0 0 0 0 0 0 0 0 0 0 0 0 0 0 0 0 0 0 0 0 0 0 0 0 0 0 0 0 0 0 0 0 0 0 0
0 0 0 0 0 0 0 0 0 0 0 0 0 0 0 0 0 0 0 0 0 0 0 0 0 0 0 0 0 0 0 0 0 0 0 0 0 0 0 0 0 0 0
0 0 0 0 0 0 0 0 0 0 0 0 0 0 0 0 0 0 0 0 0 0 0 0 0 0 0 0 0 0 0 0 0 0 0 0 0 0 0 0 0 0 0
CIN
-249 -200 -255 -119 -68 -40 -11 -9 -18 -25 -18 -27 -4 -27 -72 -76 -109 -119 -107 -65 -1 -0 -0 -0 -5 -8 -56 -8 -0 -0 -0 -0 -0 -0 -43 -0 -0 -0 -6 -24 -4 -5 -9
-307 -207 -244 -82 -64 -54 -23 -14 -15 -20 -14 -6 -14 -6 -1 -0 -0 -0 -31 -14 -0 -0 -0 -5 -24 -0 -1 -2 -0 -0 -0 -0 -0 -0 -0 -12 -2 -8 -0 -0 -0 -2 -31
-374 -261 -223 -73 -53 -45 -20 -28 -30 -13 -3 -0 -0 -1 -0 -0 -4 -0 -0 -0 -1 -1 -4 -32 -17 -0 -0 -0 -0 -0 -0 -0 -0 -0 -0 -0 -0 -0 -7 -0 -0 -0 -0
-356 -243 -189 -86 -54 -36 -35 -31 -25 -35 -10 -0 -0 -8 -1 -2 -45 -60 -11 -4 -1 -33 -163 -0 -0 -0 -0 -0 -0 -0 -0 -0 -0 -0 -0 -0 -0 -8 -0 -7 -0 -0 -0
-0 -238 -160 -109 -62 -56 -34 -29 -28 -42 -56 -1 -0 -0 -13 -35 -165 -244 -235 -182 -88 -39 -0 -0 -0 -0 -0 -0 -0 -0 -0 -0 -0 -0 -0 -0 -0 -30 -12 -5 -0 -0 -0
-0 -315 -167 -135 -84 -49 -24 -25 -19 -47 -61 -11 -0 -8 -67 -161 -281 -0 -0 -0 -243 -5 -0 -0 -0 -0 -0 -0 -0 -0 -0 -0 -0 -0 -0 -0 -0 -95 -2 -74 -2 -0 -0
-339 -451 -255 -190 -130 -85 -59 -22 -24 -28 -60 -3 -3 -39 -164 -264 -0 -1 -0 -0 -0 -1 -0 -0 -0 -0 -0 -0 -0 -0 -0 -0 -0 -0 -0 -0 -0 -0 -0 -1 -0 -0 -0
-429 -455 -400 -288 -175 -125 -102 -64 -33 -30 -44 -6 -37 -114 -261 -1 -0 -0 -0 -0 -0 -0 -0 -0 -0 -0 -0 -0 -0 -0 -0 -0 -0 -0 -0 -0 -0 -0 -0 -0 -0 -0 -0
-448 -443 -387 -308 -234 -172 -155 -117 -80 -59 -52 -33 -154 -322 -273 -0 -0 -0 -0 -0 -0 -0 -0 -0 -0 -0 -0 -0 -0 -0 -0 -0 -0 -0 -0 -0 -0 -0 -0 -0 -0 -0 -0
-529 -443 -393 -343 -312 -256 -210 -149 -86 -96 -128 -107 -257 -28 -0 -0 -0 -0 -0 -0 -0 -0 -0 -0 -0 -0 -0 -0 -0 -0 -0 -0 -0 -0 -0 -0 -0 -0 -0 -0 -0 -0 -0
-0 -506 -435 -378 -316 -312 -302 -294 -206 -192 -172 -208 -334 -0 -0 -0 -0 -0 -0 -0 -0 -0 -0 -0 -0 -0 -0 -0 -0 -0 -0 -0 -0 -0 -0 -0 -0 -0 -0 -0 -0 -0 -0
-0 -0 -512 -443 -398 -353 -349 -363 -426 -391 -296 -253 -246 -227 -0 -0 -0 -0 -0 -0 -0 -0 -0 -0 -0 -0 -0 -0 -0 -0 -0 -0 -0 -0 -0 -0 -0 -0 -0 -0 -0 -0 -0
-0 -0 -0 -209 -511 -463 -423 -446 -413 -454 -448 -377 -351 -319 -0 -0 -0 -0 -0 -0 -0 -0 -0 -0 -0 -0 -0 -0 -0 -0 -0 -0 -0 -0 -0 -0 -0 -0 -0 -0 -0 -0 -0
-0 -0 -0 -0 -0 -0 -0 -0 -0 -0 -329 -1 -32 -374 -0 -0 -0 -0 -0 -0 -0 -0 -0 -0 -0 -0 -0 -0 -0 -0 -0 -0 -0 -0 -0 -0 -0 -0 -0 -0 -0 -0 -0
-0 -0 -0 -0 -0 -0 -463 -659 -0 -0 -0 -0 -274 -0 -0 -0 -0 -0 -0 -0 -0 -0 -0 -0 -0 -0 -0 -0 -0 -0 -0 -0 -0 -0 -0 -0 -0 -0 -0 -0 -0 -0 -0
-0 -0 -0 -0 -0 -0 -0 -0 -0 -0 -0 -0 -0 -0 -0 -0 -0 -0 -0 -0 -0 -0 -0 -0 -0 -0 -0 -0 -0 -0 -0 -0 -0 -0 -0 -0 -0 -0 -0 -0 -0 -0 -0
-0 -0 -0 -0 -0 -0 -0 -0 -0 -0 -0 -0 -0 -0 -0 -0 -0 -0 -0 -0 -0 -0 -0 -0 -0 -0 -0 -0 -0 -0 -0 -0 -0 -0 -0 -0 -0 -0 -0 -0 -0 -0 -1
-0 -0 -0 -0 -0 -0 -0 -0 -0 -0 -0 -0 -0 -0 -0 -0 -0 -0 -0 -0 -0 -0 -0 -0 -0 -0 -0 -0 -0 -0 -0 -0 -0 -0 -0 -0 -0 -0 -0 -0 -0 -0 -0
-0 -0 -0 -0 -0 -0 -0 -0 -0 -0 -0 -0 -0 -0 -0 -0 -0 -0 -0 -0 -0 -0 -0 -0 -0 -0 -0 -0 -0 -0 -0 -0 -0 -0 -0 -0 -0 -0 -0 -0 -0 -0 -0
-0 -0 -0 -0 -0 -0 -0 -0 -0 -0 -0 -0 -0 -0 -0 -0 -0 -0 -0 -0 -0 -0 -0 -0 -0 -0 -0 -0 -0 -0 -0 -0 -0 -0 -0 -0 -0 -0 -0 -0 -0 -0 -0
-0 -0 -0 -0 -0 -0 -0 -0 -0 -0 -0 -0 -0 -0 -0 -0 -0 -0 -0 -0 -0 -0 -0 -0 -0 -0 -0 -0 -0 -0 -0 -0 -0 -0 -0 -0 -0 -0 -0 -0 -0 -0 -0
-0 -0 -0 -0 -0 -0 -0 -0 -0 -0 -0 -0 -1 -0 -0 -0 -0 -0 -0 -0 -0 -0 -0 -0 -0 -0 -0 -0 -0 -0 -0 -0 -0 -0 -0 -0 -0 -0 -0 -0 -0 -0 -0
-0 -0 -0 -0 -0 -0 -0 -0 -0 -0 -0 -0 -0 -1 -0 -0 -0 -0 -0 -0 -0 -0 -0 -0 -0 -0 -0 -0 -0 -0 -0 -0 -0 -0 -0 -0 -0 -0 -0 -0 -0 -0 -0
-0 -0 -0 -0 -0 -0 -0 -0 -0 -0 -0 -0 -0 -0 -0 -0 -0 -0 -0 -0 -0 -0 -0 -0 -0 -0 -0 -0 -0 -0 -0 -0 -0 -0 -0 -0 -0 -0 -0 -0 -0 -0 -0
-0 -0 -0 -0 -0 -0 -0 -0 -0 -0 -0 -0 -0 -0 -0 -0 -0 -0 -0 -0 -0 -0 -0 -0 -0 -0 -0 -0 -0 -0 -0 -0 -0 -0 -0 -0 -0 -0 -0 -0 -0 -0 -0
-0 -0 -0 -0 -0 -0 -0 -0 -0 -0 -0 -0 -0 -0 -0 -0 -0 -0 -0 -0 -0 -0 -0 -0 -0 -0 -0 -0 -0 -0 -0 -0 -0 -0 -0 -0 -0 -0 -0 -0 -0 -0 -0
Wind_Speed
17 17 20 20 20 20 19 15 9 5 5 6 7 8 10 12 12 13 13 14 14 11 12 12 13 13 14 14 15 15 15 15 15 15 15 14 15 15 15 16 15 16 17
15 16 20 19 19 17 16 15 14 10 7 6 8 8 9 10 11 13 16 14 12 11 11 12 13 14 14 15 16 16 16 16 16 16 15 14 15 15 15 16 16 16 16
11 14 18 17 17 16 16 14 11 11 10 9 8 7 9 9 11 13 13 12 10 11 12 13 14 14 14 14 15 15 16 16 17 16 16 15 15 15 15 15 16 16 16
10 11 14 15 13 13 13 11 11 11 9 9 8 7 7 8 11 12 13 12 11 12 13 14 14 14 14 15 16 16 16 16 17 17 16 16 15 15 16 15 15 15 16
11 9 9 10 10 9 9 9 9 7 7 7 8 7 6 7 11 14 15 15 15 13 14 15 14 14 15 16 17 18 18 17 17 17 17 17 17 16 16 17 14 15 16
12 11 7 7 6 6 7 6 4 4 5 4 5 6 6 8 11 13 15 17 14 14 15 15 14 14 16 17 17 17 17 17 18 17 17 16 16 16 16 16 15 16 15
10 11 8 9 10 6 4 4 4 2 1 1 3 3 5 9 11 13 14 12 13 14 14 14 14 15 15 16 16 16 17 16 16 16 16 16 17 16 17 17 16 16 16
8 8 9 9 13 11 8 4 3 3 3 4 2 4 7 9 11 13 13 11 11 11 12 12 13 13 13 14 15 16 17 17 16 16 16 16 18 17 18 19 18 18 18
6 6 6 6 8 7 8 9 8 5 4 4 4 7 8 10 12 11 12 11 11 12 11 12 11 11 12 14 15 16 17 17 17 17 18 18 20 19 20 20 20 20 19
7 3 3 3 6 8 7 6 8 6 5 5 5 8 10 12 10 10 11 11 12 11 11 11 11 11 12 14 15 16 17 18 18 18 18 20 21 20 20 20 20 20 19
9 5 3 2 2 4 5 6 7 6 6 6 6 4 7 8 9 10 10 10 10 10 10 10 10 12 13 15 16 17 19 19 18 19 19 21 22 21 20 20 20 19 18
13 9 7 6 5 5 5 5 7 7 6 6 6 5 5 4 5 5 6 7 9 9 10 10 11 12 14 16 17 19 19 19 20 20 20 22 23 22 21 20 20 18 17
16 14 11 8 8 8 9 10 9 8 9 9 8 7 6 6 6 6 7 6 6 7 10 10 13 14 16 17 17 18 19 20 20 20 21 23 23 22 21 20 19 18 18
14 11 9 9 9 9 10 12 13 12 11 11 11 10 8 8 7 7 7 6 7 7 9 10 13 15 15 16 17 18 19 20 21 21 20 22 23 22 21 19 19 18 17
13 12 11 10 10 10 10 10 12 13 13 12 12 12 11 11 11 10 10 9 9 8 9 10 11 13 14 15 17 18 19 20 21 21 20 21 21 20 18 18 17 16 16
19 17 14 12 12 12 12 12 12 12 13 13 13 13 13 13 13 13 12 12 11 11 11 11 11 12 12 14 16 17 18 19 20 20 19 19 20 20 18 18 17 16 15
26 21 22 21 17 15 15 14 14 14 14 14 14 14 14 15 15 14 15 14 14 13 13 13 12 13 14 14 15 16 17 18 19 18 18 17 17 17 18 18 18 16 14
28 26 23 21 21 19 19 18 18 18 17 16 15 15 15 15 15 15 15 16 15 15 15 15 15 15 14 14 14 16 17 18 18 18 18 17 17 17 17 18 17 15 16
28 29 26 19 18 19 20 20 20 19 20 21 20 19 18 18 18 18 17 17 16 16 16 16 16 16 16 16 16 17 17 18 18 18 17 18 18 17 16 16 16 17 18
28 28 26 24 19 17 18 19 21 23 24 24 25 25 23 22 21 21 21 19 18 19 19 18 18 18 17 17 17 18 19 19 19 19 18 18 18 17 16 15 16 17 17
30 30 29 27 22 18 17 18 21 24 23 27 29 28 26 24 23 23 23 21 20 22 21 21 21 20 20 17 19 21 21 21 20 20 19 19 18 17 17 16 16 16 16
31 31 29 28 25 21 20 19 19 21 22 23 24 27 28 28 25 25 25 24 24 25 25 23 22 22 24 18 24 22 26 25 22 21 19 19 17 17 16 16 16 16 15
32 32 30 27 25 24 23 25 23 22 24 26 23 23 24 27 27 27 27 27 27 26 26 26 25 25 26 24 23 25 28 30 23 22 21 20 17 17 17 16 16 15 15
31 30 30 29 29 27 25 25 26 28 29 27 25 25 25 23 25 26 27 29 29 28 28 28 27 28 27 28 27 29 27 25 27 27 23 21 20 19 18 17 16 15 14
29 30 29 30 31 29 29 26 26 28 28 28 27 28 24 26 26 27 26 28 29 30 30 29 29 29 30 30 29 29 30 29 27 26 27 24 24 22 19 17 16 16 15
28 29 29 30 32 33 31 30 29 28 29 29 29 30 29 26 25 28 30 29 30 31 31 31 30 31 32 32 32 32 30 30 30 28 28 24 24 22 20 19 17 16 15
Wind_Direction
126 117 133 136 137 135 131 115 92 40 3 2 356 348 327 313 301 292 299 304 303 325 331 335 331 334 333 320 317 321 321 326 333 337 342 352 353 355 354 342 10 6 4
118 118 136 136 136 131 126 119 112 90 66 16 339 340 342 341 341 315 285 299 311 324 325 321 320 319 323 314 308 312 314 315 318 326 336 356 345 351 348 347 352 356 355
83 115 135 136 135 132 130 122 108 102 98 89 66 28 346 340 328 327 324 305 325 326 322 327 328 326 324 321 316 318 320 316 314 319 317 327 347 345 346 347 350 355 355
60 102 131 136 133 131 129 120 117 113 101 94 84 63 42 6 328 314 308 315 317 323 319 323 329 328 329 325 321 318 316 315 312 308 318 324 331 333 335 341 346 349 353
85 96 115 132 134 135 132 128 124 110 105 103 102 77 33 13 332 312 297 299 300 308 316 315 324 324 323 320 316 313 311 312 310 309 310 307 308 327 326 317 343 336 337
106 115 91 126 138 140 144 141 128 119 119 104 106 91 45 347 331 320 303 297 306 312 310 313 317 319 316 311 310 310 308 306 297 309 308 306 312 322 327 326 328 330 337
99 123 111 133 148 152 163 166 163 163 310 118 116 93 356 333 325 321 319 322 315 310 314 317 323 321 323 318 318 313 311 314 316 317 313 310 314 316 320 321 320 325 330
88 109 130 138 157 159 161 179 200 231 267 282 269 309 318 326 320 316 317 324 325 326 322 323 324 328 327 325 324 322 317 316 323 323 322 325 310 315 310 310 311 311 311
52 93 120 121 146 150 160 169 175 197 255 234 258 291 303 309 311 315 314 315 317 317 319 322 328 332 333 330 326 325 319 321 326 322 319 319 306 315 312 308 306 304 310
1 33 102 124 150 163 164 167 169 174 188 206 250 279 292 301 305 307 307 307 308 312 316 320 324 328 327 326 324 326 326 324 327 323 321 315 310 315 315 311 308 308 310
340 337 322 294 240 195 188 186 182 185 188 193 203 243 283 296 297 299 298 302 303 306 309 314 319 321 322 321 321 321 318 321 324 322 321 313 310 313 315 315 312 313 316
322 316 306 288 276 268 256 235 218 211 223 217 225 251 251 262 287 288 294 296 298 302 305 307 308 313 313 316 318 317 321 321 322 319 318 312 309 312 314 316 315 318 322
315 310 300 285 271 264 268 274 274 255 242 240 230 238 243 263 282 283 294 290 297 297 302 303 305 305 307 310 314 318 321 321 321 320 318 313 311 312 313 314 316 316 316
310 299 284 274 268 254 264 269 272 267 259 256 250 245 258 266 271 271 280 275 284 288 298 303 304 305 307 310 313 317 319 320 320 320 322 317 314 312 312 313 314 316 318
305 295 283 275 259 253 240 257 258 264 263 255 255 251 256 262 267 269 274 275 278 284 291 296 301 305 308 310 313 315 317 318 319 320 321 320 319 319 319 318 318 318 320
304 299 289 274 270 265 254 246 255 258 262 258 259 255 248 259 264 265 268 269 273 277 284 290 296 300 305 310 313 317 319 321 322 322 322 324 322 319 319 319 318 317 317
305 301 295 287 277 264 259 259 262 262 258 256 257 254 251 256 261 263 266 267 270 274 277 282 288 295 300 304 309 314 318 320 322 323 323 325 327 325 325 321 318 320 320
310 306 301 294 284 272 268 268 269 270 268 266 260 260 251 250 258 260 262 263 264 267 270 275 278 284 292 297 304 310 314 316 318 321 322 321 322 324 323 322 324 325 321
320 314 310 305 294 285 278 275 272 271 272 273 272 269 262 257 258 261 264 263 260 263 264 266 270 274 281 288 297 304 308 311 313 316 317 318 317 318 322 320 321 319 316
333 329 322 317 312 302 293 285 280 278 276 275 275 275 272 268 264 264 268 266 264 266 266 266 268 272 275 281 291 297 302 305 306 309 311 313 314 316 318 319 317 317 317
339 332 327 320 320 317 308 297 288 283 281 279 277 276 272 270 266 264 267 265 263 265 266 266 269 269 274 278 285 293 297 300 300 302 305 307 309 312 314 317 316 316 317
340 337 338 331 331 326 316 313 305 299 293 289 286 281 276 272 268 264 265 264 263 266 265 264 263 267 275 266 280 285 288 292 295 296 299 302 304 308 311 312 311 308 307
343 341 343 342 336 330 322 311 309 308 304 301 295 288 282 277 273 268 265 265 263 261 261 261 260 260 268 267 272 284 286 286 291 291 290 293 296 301 306 309 309 307 304
344 345 345 344 342 340 333 323 313 306 302 303 301 296 290 281 276 271 268 266 263 260 261 260 260 262 265 266 269 275 283 289 287 289 287 284 287 293 298 303 304 302 300
347 348 347 349 349 349 342 335 325 316 310 308 307 303 297 291 285 280 273 269 265 262 259 258 258 258 262 266 264 270 273 278 282 287 286 283 284 287 292 296 298 298 295
342 343 344 345 347 348 346 341 335 328 321 314 309 305 302 298 291 286 280 275 271 267 263 261 259 257 258 263 265 268 267 270 272 276 284 281 283 285 287 291 291 292 291